ARIANE 5 R/B, 45248

Orbit data source: Space-Track

ARIANE 5 R/B, 45248 is space debris in HEO originally from a launch on Tue, 18 Feb 2020 UTC launched from the French Guiana (FRGUI). Debris objects in space refer to the collection of defunct objects orbiting the Earth. Examples of debris include non-operational satellites, rocket bodies, and fragments generated from explosions, collisions, or faulty payload assembly.

Loading next visibility...
Identifier
45248, 2020-013D
Orbit
HEO
Country
Flag of FRFR
Related business
Manufacturer
ArianeGroup
Mission
Spacecraft
Bus & Motor
ESC-A, Unknown motor
Mass
~5,000 kg wet, ~5,000 kg dry
Launch date (UTC)
2020-02-18 (6 years ago)
Launch vehicle
Unknown
Launch site
French Guiana (FRGUI)
Object type
Payload
Rocket body
Debris
Shape & HBR
Cyl + 1 Nozzle, 3.5 m
Radar Cross Section
41.627 m², Large (>1 m²)

Expand to show TLE details & history
Last TLE update: 2 days ago

TLE from 2 days ago
0 ARIANE 5 R/B
1 45248U 20013D   26171.04007201  .00000684  00000-0  48427-3 0  9996
2 45248   5.8723  28.6242 7137624 357.9183   0.3433  2.44325458 54582
Epoch: 2026-06-20T00:57Z
TLE epoch observation values (Epoch: 2026-06-20T00:57:42.221Z)
Latitude
0.00051°
Longitude
105.92104°
Altitude
301.036 km
Speed
10.11 km/s
True Right ascension
01h 54m 25s
True Declination
0° 00' 02"
Sunlit
Object was in daylight at epoch
Visualization orbit readout
Latitude
Unknown
Longitude
Unknown
Altitude
Unknown
Speed
Unknown
Apparent Right ascension
Unknown
Apparent Declination
Unknown
Sunlit
N/A
Visualization observer readout
Local Sidereal Time
21:37:30
Azimuth
Unknown
Elevation
Unknown
Doppler factor
Unknown
Orbital elements
Apogee altitude
33,537.338 km
Perigee altitude
288.662 km
Semi-major axis
23,291.137 km
Eccentricity
0.71376
Inclination
5.8723°
RAAN
28.6242°
Arg. of periapsis
357.9183°
True anomaly
2.9336°
Mean anomaly
0.3433°
Eccentric anomaly
1.19913°
Mean motion
0.6106 °/min
Orbital period
589.58 mins
BSTAR
0.00048427
Loading maneuver chart data...
Computing Atmospheric mass density...
Loading historical data...
Loading historical data...
Loading historical data...
Loading historical data...
Loading historical data...
Loading historical data...
Loading historical data...
Other satellites on launch #13 in the year 2020 (2020-02-18 UTC)

Documentation

Showing up to 5 results
|